TJS-10

Last updated on Thu Oct 30 2025 00:02:52 GMT+0000 (Coordinated Universal Time)

1 58204U 23169A 25302.73041458 .00000014 00000+0 00000+0 0 9997 2 58204 1.9448 83.2550 0005233 149.1237 241.9196 1.00271251 7233
UTC large
Height (km)
Speed (km/s)
/
Latitude / Longitude
Inclination (degrees)
Orbital Period (minutes)
Azimuth
Elevation
Range (km)
Doppler Factor

Next 0 passes for location: London (51.5072 / 0.1276)

Sorry there are no passes over London.